Погода в Кобихе

Боливия     11°01′19″S   68°45′28″W
темп.,
°C
ветер,
м/с
пор.,
м/с
влажн.,
%
обл.,
%
осадки,
мм/ч
давл.,
гПа
погр.,
м
9 мая, вс
вс923:00+18ююв127918 0.0 101650
02:00+17юв11885 0.0 101615
05:00+17юв11915 0.0 101625
08:00+19ююв13805 0.0 1018155
11:00+27юв12505 0.0 1018926
14:00+31юв12385 0.0 10141615
17:00+29ююз015263 0.0 101232
20:00+22всв00667 0.0 101311
10 мая, пн
пн1023:00+20юв11745 0.0 101411
02:00+19в00806 0.0 101411
05:00+19ю118229 0.0 101411
08:00+21ю117473 0.0 101590
11:00+30ююв12455 0.0 1016908
14:00+32юв123811 0.0 10121910
17:00+30в005550 0.0 101019
20:00+26всв116586 0.0 101211
11 мая, вт
вт1123:00+25ююз1166100 0.0 101412
02:00+24ю1272100 0.0 101359
05:00+22юв117988 0.0 101339
08:00+24вюв14795 0.0 1015183
11:00+30вюв24545 0.0 10151334
14:00+31вюв1349100 0.0 10111791
17:00+27ссз0175100 0.1 101030
20:00+23ссв1390100 0.6 101268
12 мая, ср
ср1223:00+23ссз119458 0.0 101331
02:00+22ссз119889 0.5 101333
05:00+21ююз009989 1.5 101319
08:00+22св119894 2.8 1016102
11:00+23с1296100 1.2 1017170
14:00+27св0175100 1.8 1013580
17:00+26юв128062 0.6 1011388
20:00+22юв11985 2.0 101311
13 мая, чт
чт1323:00+21ююв119941 0.0 101519
02:00+21ююв149967 0.0 1015118
05:00+21ююв1799100 0.4 1014253
08:00+21юв1799100 1.1 1016351
11:00+26вюв2368100 0.0 1017831
14:00+28юв225998 0.1 10131386
17:00+27всв137499 0.3 1011418
20:00+23св1190100 0.3 101218